User: anonymous   Login
Location: Unspecified
(0.0000°N, 0.0000°E)
Time: 01:36:01
(UTC+02:00)
Language:

Cosmos 1782 Rocket - Orbit

View from above orbital plane
View from above orbital plane
View from above satellite
View from above satellite

Ground track
Ground track

The orbit data is extracted from the following two-line orbital elements,

1 16987U 86074B   15108.16942465  .00000543  00000-0  64279-4 0  9992
2 16987 082.5162 331.1204 0018046 351.0354 157.1902 14.82713010541249
Epoch (UTC): 18 April 2015 04:03:58
Eccentricity: 0.0018046
inclination: 82.5162°
perigee height: 608 km
apogee height: 633 km
right ascension of ascending node: 331.1204°
argument of perigee: 351.0354°
revolutions per day: 14.82713010
mean anomaly at epoch: 157.1902°
orbit number at epoch: 54124

The dashed part of the orbit path shows where the satellite is in the earth's shadow,  

DLR